Temperature
28 25 24 24 25 26 26 26 26 27 28 27 27 26 26 26 26 25 24 24 23 23 23 23 23 22 22 21 21 21 20 20 20 20 19 19 19 19 19 19 19 19 19 19
25 24 26 27 27 27 27 26 26 27 28 28 27 26 26 26 26 26 25 24 24 23 23 23 22 22 22 22 21 21 21 20 20 20 20 20 19 19 19 19 19 19 19 19
25 26 28 28 27 27 26 26 26 27 27 27 26 25 25 26 26 26 25 25 24 24 23 23 23 22 22 22 22 21 21 21 21 20 20 20 19 19 19 19 19 19 19 19
25 27 28 28 27 27 26 27 28 27 25 24 25 23 24 24 24 25 25 25 24 24 24 23 23 23 23 23 22 22 21 21 21 20 20 20 20 20 20 19 19 19 19 19
25 27 27 27 28 28 27 28 28 27 25 24 24 23 22 23 23 24 24 24 24 24 24 24 23 23 23 23 23 22 22 21 21 21 20 20 20 20 20 20 19 19 19 19
26 27 28 28 28 28 28 26 25 23 22 23 24 23 22 22 23 24 24 25 24 24 24 24 23 23 23 23 22 22 22 22 21 21 21 20 20 20 20 20 20 19 19 19
25 26 27 28 27 27 26 23 22 22 21 22 23 23 22 23 24 24 24 25 25 24 24 24 23 23 23 22 22 22 22 22 21 21 21 21 20 20 20 20 20 20 19 19
24 24 26 27 27 26 25 23 22 22 22 22 23 23 23 24 24 25 25 25 25 24 24 24 24 24 23 23 23 22 22 22 22 21 21 21 20 20 20 20 20 20 20 20
23 24 26 28 28 27 26 24 22 21 22 22 22 22 23 23 23 24 24 24 25 25 24 24 24 24 23 23 23 23 22 22 22 21 21 21 20 20 20 20 19 20 20 20
23 24 25 27 27 27 26 24 21 21 21 22 22 22 22 23 22 22 22 23 24 24 24 24 23 23 23 23 23 22 22 22 22 22 21 21 21 20 20 20 19 19 19 19
23 22 23 24 26 26 26 24 21 19 20 21 21 22 23 22 22 22 22 23 23 24 24 24 23 23 23 23 22 22 22 22 21 21 21 21 21 20 20 20 19 19 19 19
21 19 21 22 24 25 25 24 21 21 21 19 20 21 23 22 22 22 22 22 23 23 23 23 23 23 23 22 22 22 21 21 21 21 21 20 20 20 20 19 19 19 19 19
21 19 19 21 21 23 24 24 22 20 19 19 20 21 22 21 21 22 22 22 22 23 23 23 23 23 22 22 22 22 21 21 21 21 20 20 20 20 20 19 19 19 19 19
21 18 19 20 20 22 22 23 23 21 19 20 21 21 21 21 20 20 22 22 22 22 22 22 22 22 22 22 22 22 21 21 21 21 20 20 20 20 20 19 19 19 19 19
19 19 20 20 21 23 23 23 24 23 21 21 21 21 21 20 20 21 21 21 21 21 21 21 22 22 22 22 21 21 21 21 20 20 20 20 20 19 19 19 19 18 18 18
17 18 19 20 22 22 22 23 23 23 23 22 21 21 20 20 21 21 21 21 20 21 21 21 21 21 21 21 21 21 21 20 20 20 20 20 19 19 19 18 18 18 18 18
17 17 18 18 19 21 20 22 22 22 21 21 20 20 20 19 19 20 20 20 20 20 21 21 21 21 21 21 21 20 20 20 19 19 19 19 19 18 18 18 18 18 17 17
17 16 15 16 18 19 19 21 22 21 21 20 20 19 19 19 20 20 20 20 20 20 20 21 20 20 20 20 20 20 20 20 19 19 19 18 18 18 18 17 17 17 17 17
16 16 15 15 17 18 20 21 21 20 19 19 19 19 19 20 19 19 20 20 20 20 20 20 20 20 20 20 20 19 19 19 18 18 18 18 18 18 18 17 17 17 17 17
15 15 15 15 17 17 18 20 21 20 18 19 19 18 18 18 16 17 19 20 19 19 20 20 20 19 19 19 19 19 19 18 18 18 18 17 17 18 17 17 17 17 17 17
16 15 15 15 16 16 18 20 20 18 17 18 19 19 18 17 17 18 19 19 19 19 19 19 19 19 19 19 19 18 18 18 18 18 17 17 17 17 17 17 16 16 16 16
15 15 15 14 15 16 18 18 17 16 18 18 18 18 18 18 18 18 19 19 18 18 18 18 18 18 18 18 18 18 18 17 17 17 17 17 16 16 16 16 16 16 16 16
15 15 14 14 15 16 18 18 18 18 18 18 18 18 18 18 18 18 18 18 18 18 18 18 17 17 17 17 17 17 17 17 17 16 16 16 16 16 16 16 16 15 15 15
14 15 14 14 15 16 17 18 18 18 18 18 18 17 18 17 17 17 17 17 17 17 17 17 17 17 16 17 16 16 16 16 16 16 16 16 16 15 15 15 15 15 15 15
14 14 13 13 14 16 17 17 17 17 17 17 17 17 17 17 17 17 17 17 17 17 17 17 17 16 16 16 16 16 16 16 15 15 15 15 15 15 15 15 15 15 15 15
13 13 13 13 14 14 15 17 17 17 17 17 17 17 17 17 17 17 17 17 16 16 16 16 16 16 15 15 15 15 15 15 15 15 15 15 15 15 14 14 14 14 14 14
Wind_Speed
3 2 5 9 9 9 6 5 6 8 6 1 4 4 11 14 13 14 14 15 16 16 13 14 16 16 15 13 12 12 11 11 8 6 5 4 4 4 3 4 7 8 8 8
3 6 12 8 6 5 5 5 6 7 6 2 3 4 8 14 16 17 18 18 17 14 12 14 14 15 15 15 14 12 12 12 10 7 6 4 4 3 4 3 5 8 8 7
8 9 7 5 6 6 5 5 5 4 5 4 2 3 3 6 6 8 12 14 16 18 18 17 16 16 15 16 16 14 12 11 11 9 5 4 2 1 2 3 3 5 7 7
7 8 6 6 6 6 6 6 4 2 1 3 1 1 5 5 2 6 8 10 13 15 15 16 17 17 18 17 15 13 13 12 11 10 8 7 6 6 6 5 5 5 6 6
7 5 5 6 7 5 6 4 2 2 2 2 1 3 6 2 3 7 8 9 11 13 16 17 18 18 17 16 15 13 13 12 11 10 10 9 7 6 4 4 5 5 5 5
8 6 6 7 6 4 2 3 5 4 3 2 6 5 5 4 7 8 9 11 11 12 13 14 14 13 12 13 13 13 13 13 12 12 10 10 9 7 6 6 6 5 4 4
8 8 6 3 3 4 3 4 3 4 3 6 4 4 6 6 7 8 9 10 11 11 11 10 11 13 14 15 14 14 14 13 13 12 11 11 10 9 9 8 7 7 5 4
3 8 6 3 5 5 4 9 8 6 6 6 2 4 5 5 5 4 5 6 8 10 11 11 12 14 15 16 15 15 15 14 14 13 12 10 10 8 7 7 7 8 7 6
4 7 6 4 4 6 4 4 9 7 3 1 4 3 4 2 1 1 1 3 5 8 10 10 10 10 11 14 15 16 16 14 14 14 12 10 10 8 7 8 7 6 6 6
5 4 7 6 3 2 5 6 5 5 4 3 4 3 4 3 2 1 2 3 3 4 7 9 9 9 9 10 11 12 13 13 12 12 12 11 10 9 8 7 7 6 6 5
3 3 7 5 1 3 2 2 4 4 5 6 4 6 5 8 7 6 5 4 4 4 5 7 8 8 8 8 9 10 11 10 10 11 10 10 9 9 8 7 7 7 6 6
2 4 2 6 6 3 3 3 5 4 4 5 5 7 4 7 7 6 5 4 3 3 2 4 6 6 6 8 8 9 10 10 10 10 9 9 8 8 7 7 7 6 6 6
3 6 3 8 8 8 4 2 2 4 3 4 4 6 2 3 3 4 5 5 5 5 3 2 4 4 5 6 8 8 9 9 9 9 8 8 8 8 8 7 6 6 6 5
4 4 5 5 6 5 6 8 5 3 2 3 5 5 3 2 4 3 4 5 5 5 4 3 4 3 3 4 6 8 9 9 9 9 9 8 8 9 9 8 7 6 6 6
5 2 1 4 5 3 4 8 7 2 4 6 6 5 6 6 7 5 5 6 5 4 4 3 3 2 2 2 3 6 7 7 9 9 9 9 7 7 7 7 6 6 6 7
4 2 3 5 5 5 5 6 6 4 2 2 2 3 4 3 4 4 6 7 5 4 4 4 3 2 2 3 4 5 6 7 8 9 8 7 6 6 7 7 6 6 6 6
1 3 2 4 7 5 5 3 2 3 3 2 3 4 2 2 4 5 6 6 6 5 4 3 3 3 3 4 5 5 6 7 7 7 6 6 6 5 6 7 6 6 6 5
4 3 3 2 3 4 7 4 1 2 3 4 1 1 4 3 2 2 3 4 4 4 4 3 2 2 1 1 3 4 5 7 8 7 6 6 7 6 5 5 5 5 4 4
7 7 4 3 3 6 6 4 1 1 2 3 2 2 1 3 5 4 1 2 3 3 3 3 3 3 2 2 2 3 4 6 6 6 6 7 7 6 6 5 5 5 4 4
3 5 5 4 4 6 6 5 3 4 1 4 2 2 1 4 2 3 2 2 2 1 2 2 3 3 2 1 2 3 5 6 6 6 6 6 7 7 6 6 5 4 4 4
3 1 4 5 5 6 5 6 4 3 5 3 1 1 1 1 4 4 2 0 0 1 2 2 3 3 1 2 3 3 4 5 6 6 5 5 6 6 6 5 4 3 3 3
3 2 3 4 5 7 4 2 2 5 3 1 0 0 0 0 1 2 1 2 2 2 2 2 2 2 1 2 3 3 2 3 4 4 4 5 5 5 4 4 4 3 4 4
1 4 5 6 6 5 2 3 3 3 2 1 1 1 1 1 1 1 1 2 2 2 2 2 2 2 1 1 3 2 2 2 2 3 3 4 4 4 4 4 4 4 4 4
4 2 1 1 2 2 1 1 2 1 1 1 1 1 2 2 1 2 3 2 2 2 2 2 2 1 1 1 1 1 1 1 2 3 3 3 3 3 3 3 4 4 5 5
5 3 2 2 4 3 3 3 2 1 2 2 1 0 2 3 2 2 2 3 3 2 2 2 3 2 1 0 1 1 1 2 1 2 2 2 3 3 3 3 3 4 5 5
5 4 4 6 6 4 5 5 2 1 1 1 2 2 1 3 3 2 2 3 3 2 2 2 2 2 1 0 1 1 0 1 2 2 2 3 3 3 3 3 2 2 4 6
Wind_Direction
279 103 240 235 217 215 224 250 271 277 273 250 234 201 184 189 189 183 181 180 184 187 180 174 174 173 170 170 170 170 172 177 172 171 175 178 185 190 187 191 191 190 190 185
344 265 241 231 231 238 246 273 280 289 284 261 242 236 193 190 192 190 185 183 183 179 172 175 174 174 176 176 176 174 176 178 178 182 181 179 172 185 190 196 190 195 194 189
223 246 251 240 244 238 253 238 251 267 313 351 49 341 242 219 193 196 192 185 182 180 180 179 178 179 179 182 181 181 180 180 181 179 170 166 144 156 192 204 200 204 195 192
241 253 267 257 250 231 254 243 215 222 30 296 127 238 276 244 197 198 197 185 187 183 180 181 180 181 184 187 184 181 180 181 183 178 176 175 182 192 202 199 199 205 198 192
255 260 258 252 245 225 236 241 205 198 156 308 315 147 278 239 215 218 197 186 190 186 181 186 187 186 185 184 183 183 181 183 184 183 184 184 194 199 195 189 193 204 209 203
257 262 232 230 240 215 217 23 16 42 79 260 241 174 259 224 216 212 206 196 193 193 190 189 187 181 182 182 183 181 182 187 187 186 186 190 195 194 189 193 197 202 208 213
294 293 277 244 285 326 79 86 25 351 353 249 240 158 238 231 209 200 201 203 196 190 191 187 182 183 184 183 184 184 186 190 189 188 193 196 197 197 199 200 199 197 201 209
259 287 277 255 205 209 203 147 165 202 229 268 305 200 235 217 202 181 175 182 177 184 187 182 184 187 187 186 186 186 189 193 193 194 196 199 197 200 205 204 201 201 203 208
202 258 278 259 230 170 199 195 177 159 201 240 279 281 309 324 37 95 146 148 158 173 181 182 182 182 185 188 191 190 190 193 194 196 195 196 198 198 203 203 202 203 206 209
169 255 290 295 358 330 177 169 100 124 160 232 278 252 231 252 235 184 163 142 148 176 181 182 181 181 186 190 192 189 190 193 193 193 196 199 197 196 198 197 199 201 204 209
126 170 298 340 317 276 358 73 114 134 159 166 233 264 222 193 181 171 176 152 159 171 178 183 184 180 182 178 177 183 189 191 192 195 197 197 195 195 196 197 200 205 206 202
42 121 269 272 271 239 173 175 145 161 234 177 181 256 269 179 170 163 153 131 120 115 140 174 172 170 173 178 181 183 184 190 193 192 190 192 188 188 194 199 202 203 204 205
57 87 34 342 342 357 14 3 116 140 141 167 178 256 312 119 128 141 128 114 104 100 85 104 136 158 175 179 183 186 184 189 189 183 182 185 188 188 193 198 197 199 203 204
75 96 145 191 238 294 324 330 345 89 134 211 212 227 265 166 149 147 130 119 111 111 103 89 92 119 165 176 186 185 190 187 183 180 181 187 194 195 197 197 194 197 201 204
73 94 229 238 260 315 319 318 326 327 203 198 227 210 227 202 180 173 148 130 125 121 118 114 105 102 123 156 178 180 181 181 181 180 184 194 200 201 196 194 197 201 207 210
54 93 15 330 329 342 322 315 318 318 318 227 196 250 233 190 143 134 140 140 147 146 145 140 129 112 144 165 180 173 172 173 171 178 187 188 187 196 199 198 196 198 206 208
19 98 69 292 310 351 304 277 311 340 333 238 217 228 180 127 149 163 164 156 162 161 157 150 150 182 181 179 176 178 182 169 165 172 179 179 185 196 206 198 190 198 204 202
180 150 152 232 360 247 245 259 111 84 14 11 55 164 162 162 177 182 155 146 163 166 157 152 159 170 171 193 173 170 163 164 166 171 178 184 186 192 188 182 190 201 203 204
177 163 157 157 216 266 279 290 348 106 344 351 58 56 64 70 54 25 22 144 165 173 165 165 165 169 166 166 178 155 152 157 162 174 185 190 184 181 179 187 203 208 205 211
101 130 146 165 193 231 248 288 308 101 302 319 55 77 75 71 64 273 296 81 74 105 138 144 141 127 125 158 161 143 156 160 175 186 192 193 189 186 191 201 209 210 210 219
17 61 170 188 214 246 263 300 19 136 226 267 100 131 146 177 209 216 219 180 149 141 115 111 114 111 125 128 119 126 154 178 188 184 187 194 191 192 193 198 205 204 206 213
206 194 207 180 204 242 282 35 138 209 227 196 116 272 52 305 178 176 188 177 153 109 96 95 102 97 95 104 114 129 162 195 176 168 178 195 195 200 195 194 207 209 205 209
228 202 201 197 214 233 236 168 209 190 182 217 277 292 107 97 201 193 170 158 152 140 130 113 115 106 34 59 119 137 231 205 157 156 180 195 198 201 194 192 210 222 216 214
303 341 69 339 283 293 315 13 358 71 143 225 219 244 165 163 216 208 178 175 171 154 166 163 140 117 20 3 22 195 214 174 137 170 194 194 194 205 208 204 206 212 221 218
269 339 353 299 283 325 330 324 313 344 24 12 355 159 185 171 190 206 200 190 186 180 194 174 163 172 213 260 285 263 154 128 167 199 198 197 203 203 213 222 221 218 226 217
239 222 214 242 246 228 258 269 287 336 332 346 341 324 247 181 189 192 200 199 186 181 174 171 169 176 211 214 289 300 261 178 189 226 223 206 205 203 205 208 247 256 235 240
Height
1481 1488 1494 1490 1487 1489 1490 1494 1496 1487 1478 1481 1483 1484 1484 1486 1488 1489 1491 1494 1496 1498 1502 1507 1510 1513 1516 1519 1522 1524 1526 1529 1531 1533 1535 1537 1538 1540 1541 1542 1543 1544 1545 1546
1487 1491 1482 1479 1480 1483 1487 1494 1493 1484 1476 1480 1483 1483 1480 1481 1483 1484 1485 1488 1492 1497 1501 1505 1508 1511 1514 1516 1519 1522 1524 1527 1529 1531 1533 1536 1537 1538 1540 1541 1541 1542 1543 1544
1489 1482 1474 1477 1481 1484 1487 1491 1489 1487 1480 1479 1485 1492 1486 1481 1482 1484 1485 1486 1488 1492 1496 1500 1504 1507 1510 1513 1516 1518 1521 1524 1527 1529 1532 1534 1536 1537 1538 1538 1539 1540 1541 1542
1480 1474 1474 1476 1479 1480 1489 1478 1478 1482 1493 1500 1493 1513 1496 1485 1485 1485 1486 1487 1488 1491 1493 1496 1499 1503 1506 1509 1512 1516 1519 1522 1524 1527 1529 1531 1532 1533 1534 1536 1537 1539 1540 1540
1479 1472 1474 1477 1474 1473 1477 1471 1475 1479 1490 1501 1497 1510 1504 1489 1490 1486 1484 1485 1486 1488 1490 1492 1495 1498 1502 1506 1509 1513 1516 1519 1522 1524 1526 1528 1530 1531 1533 1534 1536 1537 1537 1538
1471 1466 1467 1468 1465 1466 1467 1474 1480 1487 1499 1514 1500 1507 1508 1493 1487 1483 1481 1482 1482 1484 1487 1489 1493 1497 1500 1504 1507 1510 1513 1515 1518 1521 1523 1525 1527 1529 1530 1531 1532 1533 1534 1535
1477 1468 1463 1462 1468 1468 1471 1492 1514 1517 1524 1517 1497 1501 1501 1481 1476 1476 1476 1476 1477 1481 1484 1487 1491 1494 1496 1500 1502 1506 1509 1512 1514 1517 1519 1521 1524 1526 1527 1528 1529 1530 1531 1532
1490 1487 1466 1461 1466 1473 1474 1487 1513 1525 1525 1514 1497 1501 1488 1474 1472 1471 1471 1472 1474 1478 1480 1482 1485 1488 1491 1495 1498 1501 1504 1507 1511 1513 1515 1518 1521 1522 1524 1525 1526 1527 1528 1529
1487 1484 1462 1457 1456 1462 1473 1480 1483 1502 1506 1513 1506 1494 1481 1472 1470 1469 1470 1470 1471 1473 1476 1479 1481 1484 1487 1490 1493 1496 1499 1503 1506 1509 1512 1514 1517 1518 1520 1522 1523 1523 1524 1526
1472 1480 1467 1458 1455 1457 1461 1469 1488 1502 1515 1520 1508 1499 1494 1479 1475 1471 1469 1469 1470 1472 1473 1476 1478 1481 1484 1486 1489 1492 1496 1499 1501 1505 1508 1510 1512 1515 1516 1518 1519 1520 1521 1522
1468 1480 1475 1467 1467 1468 1466 1472 1482 1497 1500 1514 1517 1503 1473 1472 1469 1469 1468 1468 1468 1469 1471 1473 1475 1477 1480 1483 1486 1489 1492 1495 1498 1501 1503 1506 1508 1511 1513 1514 1515 1516 1517 1519
1469 1480 1486 1475 1462 1458 1462 1468 1479 1495 1499 1501 1507 1498 1463 1464 1464 1465 1465 1466 1467 1467 1470 1471 1473 1475 1478 1480 1482 1484 1487 1491 1494 1496 1499 1502 1504 1506 1508 1510 1511 1512 1513 1514
1469 1484 1497 1490 1481 1469 1467 1466 1470 1480 1491 1499 1504 1492 1463 1463 1464 1464 1464 1465 1467 1468 1469 1470 1471 1472 1475 1476 1479 1481 1483 1486 1490 1493 1495 1497 1499 1501 1503 1505 1507 1507 1509 1510
1466 1483 1494 1499 1493 1480 1476 1470 1467 1477 1492 1494 1489 1481 1470 1466 1465 1465 1465 1465 1466 1467 1469 1469 1469 1471 1473 1474 1475 1477 1480 1482 1485 1488 1491 1492 1494 1496 1498 1500 1501 1503 1504 1505
1470 1484 1482 1481 1476 1472 1472 1470 1467 1471 1476 1483 1478 1475 1468 1464 1463 1464 1464 1465 1466 1467 1468 1469 1468 1470 1471 1472 1473 1475 1476 1479 1481 1483 1486 1488 1490 1492 1494 1495 1496 1498 1499 1500
1474 1482 1482 1481 1473 1472 1472 1468 1466 1466 1466 1469 1469 1469 1461 1461 1462 1463 1463 1464 1465 1466 1467 1467 1467 1468 1468 1469 1470 1471 1472 1474 1477 1479 1481 1483 1486 1488 1489 1490 1492 1493 1494 1495
1478 1482 1489 1491 1479 1475 1481 1470 1466 1467 1464 1465 1470 1467 1461 1462 1461 1462 1462 1462 1462 1463 1464 1465 1466 1466 1467 1467 1468 1468 1469 1471 1473 1474 1477 1479 1481 1482 1484 1486 1487 1488 1490 1491
1476 1482 1491 1492 1487 1493 1479 1462 1461 1463 1464 1461 1461 1461 1460 1459 1460 1460 1460 1460 1461 1461 1461 1462 1463 1464 1465 1465 1466 1467 1467 1468 1469 1471 1473 1475 1477 1479 1480 1481 1482 1484 1485 1486
1466 1476 1487 1494 1495 1487 1471 1461 1460 1464 1468 1462 1461 1460 1459 1459 1459 1461 1461 1461 1461 1461 1461 1461 1462 1463 1462 1462 1463 1464 1464 1466 1467 1469 1471 1472 1473 1474 1475 1476 1478 1479 1481 1482
1464 1470 1482 1489 1491 1491 1474 1459 1455 1460 1472 1463 1461 1461 1460 1459 1465 1464 1461 1460 1460 1460 1460 1460 1460 1460 1460 1460 1461 1461 1462 1463 1464 1466 1467 1469 1470 1471 1472 1473 1475 1476 1477 1478
1474 1476 1480 1484 1486 1478 1465 1458 1456 1473 1473 1462 1460 1460 1459 1459 1460 1460 1460 1459 1459 1460 1459 1459 1459 1458 1458 1458 1458 1459 1459 1460 1462 1463 1464 1466 1467 1468 1469 1471 1472 1473 1474 1474
1476 1479 1480 1482 1485 1481 1461 1459 1463 1465 1461 1460 1459 1459 1458 1457 1457 1457 1457 1457 1457 1457 1457 1458 1458 1457 1457 1456 1456 1456 1457 1458 1458 1459 1460 1462 1463 1465 1466 1467 1468 1469 1470 1471
1471 1471 1472 1472 1472 1462 1458 1458 1459 1458 1458 1458 1458 1457 1457 1456 1456 1456 1455 1455 1455 1455 1456 1456 1456 1456 1455 1455 1455 1454 1455 1455 1456 1456 1457 1458 1459 1461 1462 1463 1465 1466 1466 1466
1468 1464 1466 1467 1462 1459 1458 1457 1457 1456 1456 1456 1455 1455 1454 1454 1454 1454 1454 1454 1454 1454 1454 1454 1455 1454 1454 1453 1452 1452 1453 1453 1453 1454 1454 1455 1456 1457 1458 1459 1460 1461 1461 1461
1468 1466 1467 1467 1462 1459 1458 1457 1457 1455 1454 1454 1453 1453 1453 1453 1452 1452 1452 1452 1452 1452 1453 1453 1453 1452 1452 1451 1452 1451 1450 1450 1451 1451 1452 1452 1453 1454 1454 1454 1455 1456 1457 1457
1464 1465 1467 1465 1459 1459 1458 1457 1456 1454 1453 1453 1452 1451 1451 1450 1450 1450 1450 1450 1450 1450 1451 1451 1450 1450 1450 1449 1449 1448 1448 1448 1448 1448 1449 1449 1450 1450 1450 1451 1451 1451 1452 1452